| time (UTC) | temp F | wind direction | speed MPH | gust MPH | rain 1hr in | rain 24hr in | rain mn in | humidity % | barometer mb |
| 20260902220929 | 84 | 18 | 1.0 | 2.0 | 0.00 | 0.00 | 0.00 | 29 | 1014.8 |
| 20260902220423 | 82 | 264 | 2.0 | 2.0 | 0.00 | 0.00 | 0.00 | 28 | 1014.8 |
| 20260902215918 | 81 | 255 | 3.0 | 5.0 | 0.00 | 0.00 | 0.00 | 30 | 1014.7 |
| 20260902215414 | 82 | 258 | 7.0 | 8.0 | 0.00 | 0.00 | 0.00 | 30 | 1014.9 |
| 20260902214910 | 82 | 73 | 2.0 | 2.0 | 0.00 | 0.00 | 0.00 | 29 | 1014.9 |
| 20260902214409 | 82 | 344 | 2.0 | 2.0 | 0.00 | 0.00 | 0.00 | 29 | 1015.1 |
| 20260902213903 | 81 | 278 | 3.0 | 5.0 | 0.00 | 0.00 | 0.00 | 31 | 1015.2 |
| 20260902213359 | 81 | 275 | 3.0 | 4.0 | 0.00 | 0.00 | 0.00 | 31 | 1015.0 |
| 20260902212858 | 80 | 267 | 3.0 | 4.0 | 0.00 | 0.00 | 0.00 | 31 | 1015.3 |
| 20260902212354 | 81 | 32 | 2.0 | 2.0 | 0.00 | 0.00 | 0.00 | 32 | 1015.3 |
| 20260902211851 | 81 | 273 | 4.0 | 5.0 | 0.00 | 0.00 | 0.00 | 32 | 1015.5 |
| 20260902211346 | 80 | 287 | 4.0 | 5.0 | 0.00 | 0.00 | 0.00 | 32 | 1015.4 |
| 20260902210841 | 79 | 168 | 1.0 | 1.0 | 0.00 | 0.00 | 0.00 | 35 | 1015.5 |
| 20260902210340 | 80 | 305 | 2.0 | 2.0 | 0.00 | 0.00 | 0.00 | 31 | 1015.4 |
| 20260902205839 | 80 | 247 | 2.0 | 2.0 | 0.00 | 0.00 | 0.00 | 33 | 1015.6 |
| 20260902205334 | 80 | 80 | 0.0 | 0.0 | 0.00 | 0.00 | 0.00 | 33 | 1015.6 |
| 20260902204830 | 80 | 39 | 5.0 | 5.0 | 0.00 | 0.00 | 0.00 | 33 | 1015.9 |
| 20260902204324 | 80 | 27 | 2.0 | 2.0 | 0.00 | 0.00 | 0.00 | 33 | 1015.7 |
| 20260902203820 | 79 | 73 | 0.0 | 0.0 | 0.00 | 0.00 | 0.00 | 33 | 1015.9 |
| 20260902203315 | 80 | 12 | 1.0 | 1.0 | 0.00 | 0.00 | 0.00 | 33 | 1016.0 |
| 20260902202814 | 80 | 28 | 1.0 | 1.0 | 0.00 | 0.00 | 0.00 | 34 | 1016.0 |
| 20260902202310 | 79 | 3 | 2.0 | 2.0 | 0.00 | 0.00 | 0.00 | 34 | 1016.0 |
| 20260902201807 | 79 | 322 | 2.0 | 2.0 | 0.00 | 0.00 | 0.00 | 34 | 1015.9 |
| 20260902201301 | 77 | 81 | 1.0 | 1.0 | 0.00 | 0.00 | 0.00 | 35 | 1016.0 |
| 20260902200756 | 77 | 252 | 3.0 | 4.0 | 0.00 | 0.00 | 0.00 | 38 | 1016.1 |
| 20260902200251 | 78 | 266 | 5.0 | 7.0 | 0.00 | 0.00 | 0.00 | 36 | 1016.1 |
| 20260902195747 | 78 | 45 | 1.0 | 1.0 | 0.00 | 0.00 | 0.00 | 37 | 1016.1 |
| 20260902195246 | 75 | 229 | 0.0 | 0.0 | 0.00 | 0.00 | 0.00 | 38 | 1016.0 |
| 20260902194740 | 76 | 239 | 3.0 | 4.0 | 0.00 | 0.00 | 0.00 | 37 | 1016.0 |
| 20260902194235 | 77 | 256 | 2.0 | 4.0 | 0.00 | 0.00 | 0.00 | 37 | 1016.2 |
| 20260902193731 | 78 | 315 | 2.0 | 4.0 | 0.00 | 0.00 | 0.00 | 38 | 1016.3 |
| 20260902193226 | 76 | 5 | 2.0 | 4.0 | 0.00 | 0.00 | 0.00 | 39 | 1016.5 |
| 20260902192724 | 76 | 343 | 1.0 | 1.0 | 0.00 | 0.00 | 0.00 | 39 | 1016.4 |
| 20260902192219 | 75 | 230 | 2.0 | 2.0 | 0.00 | 0.00 | 0.00 | 41 | 1016.1 |
| 20260902191719 | 75 | 48 | 0.0 | 1.0 | 0.00 | 0.00 | 0.00 | 39 | 1016.7 |
| 20260902191213 | 75 | 213 | 2.0 | 2.0 | 0.00 | 0.00 | 0.00 | 41 | 1016.5 |
| 20260902190709 | 74 | 56 | 0.0 | 1.0 | 0.00 | 0.00 | 0.00 | 41 | 1016.7 |
| 20260902190209 | 73 | 272 | 2.0 | 2.0 | 0.00 | 0.00 | 0.00 | 42 | 1016.6 |
| 20260902185704 | 73 | 185 | 1.0 | 1.0 | 0.00 | 0.00 | 0.00 | 43 | 1016.7 |
| 20260902185202 | 73 | 254 | 3.0 | 4.0 | 0.00 | 0.00 | 0.00 | 43 | 1016.8 |
| 20260902184655 | 73 | 252 | 3.0 | 5.0 | 0.00 | 0.00 | 0.00 | 44 | 1016.9 |
| 20260902184151 | 74 | 51 | 0.0 | 1.0 | 0.00 | 0.00 | 0.00 | 43 | 1016.8 |
| 20260902183647 | 73 | 228 | 1.0 | 1.0 | 0.00 | 0.00 | 0.00 | 44 | 1016.9 |
| 20260902183143 | 72 | 43 | 0.0 | 0.0 | 0.00 | 0.00 | 0.00 | 45 | 1016.9 |
| 20260902182639 | 71 | 72 | 1.0 | 1.0 | 0.00 | 0.00 | 0.00 | 47 | 1017.1 |
| 20260902182135 | 71 | 13 | 2.0 | 4.0 | 0.00 | 0.00 | 0.00 | 47 | 1017.0 |
| 20260902181631 | 71 | 228 | 2.0 | 5.0 | 0.00 | 0.00 | 0.00 | 47 | 1017.0 |
| 20260902181130 | 70 | 332 | 0.0 | 1.0 | 0.00 | 0.00 | 0.00 | 48 | 1017.1 |
| 20260902180624 | 70 | 249 | 2.0 | 4.0 | 0.00 | 0.00 | 0.00 | 49 | 1017.0 |
| 20260902180121 | 70 | 246 | 2.0 | 4.0 | 0.00 | 0.00 | 0.00 | 49 | 1017.4 |
| 20260902175620 | 70 | 252 | 2.0 | 2.0 | 0.00 | 0.00 | 0.00 | 48 | 1017.2 |
| 20260902175116 | 71 | 245 | 3.0 | 4.0 | 0.00 | 0.00 | 0.00 | 48 | 1017.2 |
| 20260902174612 | 70 | 48 | 1.0 | 1.0 | 0.00 | 0.00 | 0.00 | 45 | 1017.1 |
| 20260902174107 | 69 | 49 | 2.0 | 2.0 | 0.00 | 0.00 | 0.00 | 47 | 1017.4 |
| 20260902173602 | 68 | 291 | 1.0 | 1.0 | 0.00 | 0.00 | 0.00 | 48 | 1017.5 |
| 20260902173057 | 68 | 284 | 0.0 | 0.0 | 0.00 | 0.00 | 0.00 | 49 | 1017.3 |
| 20260902172551 | 68 | 310 | 2.0 | 4.0 | 0.00 | 0.00 | 0.00 | 50 | 1017.2 |
| 20260902172046 | 68 | 105 | 1.0 | 1.0 | 0.00 | 0.00 | 0.00 | 51 | 1017.2 |
| 20260902171542 | 66 | 80 | 1.0 | 1.0 | 0.00 | 0.00 | 0.00 | 55 | 1017.4 |
| 20260902171037 | 67 | 244 | 2.0 | 2.0 | 0.00 | 0.00 | 0.00 | 56 | 1017.4 |
| 20260902170532 | 68 | 93 | 0.0 | 1.0 | 0.00 | 0.00 | 0.00 | 53 | 1017.3 |
| 20260902170028 | 68 | 261 | 1.0 | 1.0 | 0.00 | 0.00 | 0.00 | 54 | 1017.2 |
| 20260902165527 | 67 | 103 | 0.0 | 1.0 | 0.00 | 0.00 | 0.00 | 55 | 1017.2 |
| 20260902165022 | 66 | 13 | 2.0 | 2.0 | 0.00 | 0.00 | 0.00 | 56 | 1017.2 |
| 20260902164517 | 66 | 107 | 1.0 | 1.0 | 0.00 | 0.00 | 0.00 | 58 | 1017.2 |
| 20260902164016 | 66 | 47 | 2.0 | 2.0 | 0.00 | 0.00 | 0.00 | 57 | 1017.2 |
| 20260902163512 | 66 | 76 | 0.0 | 1.0 | 0.00 | 0.00 | 0.00 | 58 | 1017.2 |
| 20260902163010 | 66 | 48 | 0.0 | 0.0 | 0.00 | 0.00 | 0.00 | 57 | 1017.3 |
| 20260902162510 | 66 | 50 | 0.0 | 0.0 | 0.00 | 0.00 | 0.00 | 58 | 1017.1 |
| 20260902162005 | 65 | 98 | 0.0 | 0.0 | 0.00 | 0.00 | 0.00 | 60 | 1017.2 |
| 20260902161500 | 65 | 60 | 2.0 | 2.0 | 0.00 | 0.00 | 0.00 | 59 | 1017.2 |
| 20260902160956 | 65 | 344 | 0.0 | 1.0 | 0.00 | 0.00 | 0.00 | 59 | 1017.2 |
| 20260902160451 | 64 | 41 | 0.0 | 0.0 | 0.00 | 0.00 | 0.00 | 61 | 1017.4 |
| 20260902155949 | 62 | 306 | 1.0 | 1.0 | 0.00 | 0.00 | 0.00 | 63 | 1017.6 |
| 20260902155445 | 63 | 248 | 3.0 | 4.0 | 0.00 | 0.00 | 0.00 | 63 | 1017.7 |
| 20260902154938 | 63 | 48 | 0.0 | 0.0 | 0.00 | 0.00 | 0.00 | 63 | 1017.6 |
| 20260902154434 | 63 | 41 | 1.0 | 1.0 | 0.00 | 0.00 | 0.00 | 63 | 1017.6 |
| 20260902153933 | 63 | 45 | 0.0 | 0.0 | 0.00 | 0.00 | 0.00 | 64 | 1017.6 |
| 20260902153432 | 62 | 52 | 0.0 | 1.0 | 0.00 | 0.00 | 0.00 | 63 | 1017.4 |
| 20260902152928 | 62 | 51 | 1.0 | 1.0 | 0.00 | 0.00 | 0.00 | 63 | 1017.4 |
| 20260902152424 | 62 | 222 | 1.0 | 1.0 | 0.00 | 0.00 | 0.00 | 65 | 1017.2 |
| 20260902151919 | 62 | 50 | 0.0 | 0.0 | 0.00 | 0.00 | 0.00 | 66 | 1017.2 |
| 20260902151415 | 61 | 220 | 1.0 | 1.0 | 0.00 | 0.00 | 0.00 | 68 | 1017.2 |
| 20260902150909 | 60 | 319 | 2.0 | 2.0 | 0.00 | 0.00 | 0.00 | 68 | 1016.9 |
| 20260902150405 | 60 | 295 | 1.0 | 1.0 | 0.00 | 0.00 | 0.00 | 68 | 1017.1 |
| 20260902145904 | 60 | 279 | 1.0 | 1.0 | 0.00 | 0.00 | 0.00 | 67 | 1016.9 |
| 20260902145400 | 60 | 313 | 0.0 | 0.0 | 0.00 | 0.00 | 0.00 | 66 | 1017.0 |
| 20260902144855 | 61 | 312 | 1.0 | 1.0 | 0.00 | 0.00 | 0.00 | 65 | 1017.0 |
| 20260902144351 | 60 | 37 | 0.0 | 0.0 | 0.00 | 0.00 | 0.00 | 66 | 1016.9 |
| 20260902143851 | 59 | 37 | 0.0 | 0.0 | 0.00 | 0.00 | 0.00 | 69 | 1016.6 |
| 20260902143346 | 59 | 37 | 0.0 | 0.0 | 0.00 | 0.00 | 0.00 | 70 | 1016.5 |
| 20260902142842 | 58 | 36 | 1.0 | 1.0 | 0.00 | 0.00 | 0.00 | 72 | 1016.5 |
| 20260902142337 | 57 | 9 | 0.0 | 0.0 | 0.00 | 0.00 | 0.00 | 73 | 1016.4 |
| 20260902141832 | 57 | 10 | 0.0 | 0.0 | 0.00 | 0.00 | 0.00 | 74 | 1016.4 |
| 20260902141328 | 57 | 10 | 0.0 | 0.0 | 0.00 | 0.00 | 0.00 | 74 | 1016.4 |
| 20260902140827 | 56 | 9 | 0.0 | 0.0 | 0.00 | 0.00 | 0.00 | 75 | 1016.3 |
| 20260902140323 | 56 | 9 | 0.0 | 0.0 | 0.00 | 0.00 | 0.00 | 75 | 1016.1 |
| 20260902135822 | 56 | 9 | 0.0 | 0.0 | 0.00 | 0.00 | 0.00 | 77 | 1016.2 |
| 20260902135318 | 56 | 10 | 0.0 | 0.0 | 0.00 | 0.00 | 0.00 | 77 | 1016.2 |
| 20260902134817 | 56 | 9 | 0.0 | 0.0 | 0.00 | 0.00 | 0.00 | 77 | 1016.0 |
| 20260902134313 | 56 | 6 | 0.0 | 0.0 | 0.00 | 0.00 | 0.00 | 77 | 1016.1 |
| 20260902133808 | 56 | 3 | 0.0 | 0.0 | 0.00 | 0.00 | 0.00 | 77 | 1016.1 |
| 20260902133307 | 56 | 3 | 0.0 | 0.0 | 0.00 | 0.00 | 0.00 | 76 | 1015.9 |
| 20260902132803 | 56 | 294 | 0.0 | 0.0 | 0.00 | 0.00 | 0.00 | 76 | 1015.9 |
| 20260902132258 | 56 | 302 | 0.0 | 0.0 | 0.00 | 0.00 | 0.00 | 76 | 1015.8 |
| 20260902131753 | 56 | 302 | 0.0 | 1.0 | 0.00 | 0.00 | 0.00 | 76 | 1015.5 |
| 20260902131250 | 56 | 309 | 0.0 | 0.0 | 0.00 | 0.00 | 0.00 | 76 | 1015.7 |
| 20260902130749 | 56 | 288 | 0.0 | 0.0 | 0.00 | 0.00 | 0.00 | 76 | 1015.6 |
| 20260902130245 | 56 | 337 | 0.0 | 1.0 | 0.00 | 0.00 | 0.00 | 76 | 1015.5 |
| 20260902125740 | 56 | 323 | 0.0 | 0.0 | 0.00 | 0.00 | 0.00 | 76 | 1015.6 |
| 20260902125236 | 56 | 14 | 0.0 | 0.0 | 0.00 | 0.00 | 0.00 | 75 | 1015.6 |
| 20260902124732 | 56 | 279 | 0.0 | 0.0 | 0.00 | 0.00 | 0.00 | 75 | 1015.5 |
| 20260902124227 | 56 | 296 | 0.0 | 0.0 | 0.00 | 0.00 | 0.00 | 74 | 1015.5 |
| 20260902123717 | 57 | 259 | 0.0 | 1.0 | 0.00 | 0.00 | 0.00 | 74 | 1015.5 |
| 20260902123213 | 57 | 319 | 0.0 | 0.0 | 0.00 | 0.00 | 0.00 | 73 | 1015.4 |
| 20260902122712 | 57 | 304 | 0.0 | 1.0 | 0.00 | 0.00 | 0.00 | 73 | 1015.5 |
| 20260902122207 | 57 | 271 | 1.0 | 1.0 | 0.00 | 0.00 | 0.00 | 72 | 1015.4 |
| 20260902121702 | 57 | 292 | 1.0 | 1.0 | 0.00 | 0.00 | 0.00 | 72 | 1015.6 |
| 20260902121156 | 57 | 328 | 1.0 | 1.0 | 0.00 | 0.00 | 0.00 | 72 | 1015.5 |
| 20260902120653 | 57 | 316 | 0.0 | 0.0 | 0.00 | 0.00 | 0.00 | 71 | 1015.4 |
| 20260902120149 | 57 | 268 | 1.0 | 1.0 | 0.00 | 0.00 | 0.00 | 71 | 1015.6 |
| 20260902115649 | 57 | 247 | 3.0 | 4.0 | 0.00 | 0.00 | 0.00 | 72 | 1015.6 |
| 20260902115145 | 57 | 227 | 3.0 | 4.0 | 0.00 | 0.00 | 0.00 | 72 | 1015.6 |
| 20260902114641 | 57 | 287 | 1.0 | 2.0 | 0.00 | 0.00 | 0.00 | 71 | 1015.6 |
| 20260902114136 | 57 | 274 | 2.0 | 2.0 | 0.00 | 0.00 | 0.00 | 72 | 1015.8 |
| 20260902113631 | 57 | 286 | 1.0 | 1.0 | 0.00 | 0.00 | 0.00 | 72 | 1015.6 |
| 20260902113126 | 57 | 45 | 0.0 | 1.0 | 0.00 | 0.00 | 0.00 | 71 | 1015.6 |
| 20260902112621 | 57 | 310 | 2.0 | 2.0 | 0.00 | 0.00 | 0.00 | 71 | 1015.3 |
| 20260902112118 | 57 | 257 | 2.0 | 4.0 | 0.00 | 0.00 | 0.00 | 71 | 1015.7 |
| 20260902111608 | 57 | 219 | 1.0 | 1.0 | 0.00 | 0.00 | 0.00 | 71 | 1015.3 |
| 20260902111103 | 57 | 247 | 1.0 | 2.0 | 0.00 | 0.00 | 0.00 | 71 | 1015.5 |
| 20260902110559 | 58 | 286 | 2.0 | 2.0 | 0.00 | 0.00 | 0.00 | 70 | 1015.4 |
| 20260902110055 | 58 | 263 | 2.0 | 2.0 | 0.00 | 0.00 | 0.00 | 69 | 1015.2 |
| 20260902105555 | 58 | 265 | 1.0 | 2.0 | 0.00 | 0.00 | 0.00 | 69 | 1015.3 |
| 20260902105055 | 58 | 263 | 3.0 | 5.0 | 0.00 | 0.00 | 0.00 | 69 | 1015.3 |
| 20260902104550 | 58 | 246 | 3.0 | 4.0 | 0.00 | 0.00 | 0.00 | 68 | 1015.4 |
| 20260902104045 | 58 | 234 | 3.0 | 4.0 | 0.00 | 0.00 | 0.00 | 67 | 1015.2 |
| 20260902103540 | 59 | 243 | 3.0 | 4.0 | 0.00 | 0.00 | 0.00 | 67 | 1015.3 |
| 20260902103035 | 59 | 258 | 3.0 | 4.0 | 0.00 | 0.00 | 0.00 | 66 | 1015.0 |
| 20260902102532 | 59 | 253 | 3.0 | 5.0 | 0.00 | 0.00 | 0.00 | 65 | 1015.2 |
| 20260902102029 | 59 | 254 | 2.0 | 2.0 | 0.00 | 0.00 | 0.00 | 65 | 1015.2 |
| 20260902101524 | 59 | 270 | 2.0 | 2.0 | 0.00 | 0.00 | 0.00 | 64 | 1015.1 |
| 20260902101023 | 60 | 297 | 1.0 | 1.0 | 0.00 | 0.00 | 0.00 | 63 | 1015.2 |
| 20260902100517 | 60 | 277 | 3.0 | 4.0 | 0.00 | 0.00 | 0.00 | 63 | 1015.2 |
| 20260902100012 | 60 | 259 | 2.0 | 2.0 | 0.00 | 0.00 | 0.00 | 64 | 1015.0 |
| 20260902095511 | 60 | 277 | 1.0 | 1.0 | 0.00 | 0.00 | 0.00 | 63 | 1015.1 |
| 20260902095010 | 61 | 269 | 1.0 | 1.0 | 0.00 | 0.00 | 0.00 | 63 | 1015.2 |
| 20260902094506 | 61 | 256 | 2.0 | 2.0 | 0.00 | 0.00 | 0.00 | 63 | 1015.0 |
| 20260902094002 | 61 | 265 | 2.0 | 2.0 | 0.00 | 0.00 | 0.00 | 63 | 1015.0 |
| 20260902093456 | 61 | 277 | 0.0 | 1.0 | 0.00 | 0.00 | 0.00 | 63 | 1015.0 |
| 20260902092955 | 61 | 324 | 1.0 | 1.0 | 0.00 | 0.00 | 0.00 | 63 | 1015.0 |
| 20260902092451 | 61 | 261 | 2.0 | 2.0 | 0.00 | 0.00 | 0.00 | 62 | 1015.0 |
| 20260902091951 | 61 | 245 | 2.0 | 2.0 | 0.00 | 0.00 | 0.00 | 62 | 1015.0 |
| 20260902091446 | 61 | 251 | 2.0 | 2.0 | 0.00 | 0.00 | 0.00 | 62 | 1015.0 |
| 20260902090943 | 62 | 247 | 1.0 | 1.0 | 0.00 | 0.00 | 0.00 | 62 | 1015.2 |
| 20260902090438 | 62 | 245 | 2.0 | 2.0 | 0.00 | 0.00 | 0.00 | 62 | 1015.3 |
| 20260902085936 | 62 | 260 | 1.0 | 1.0 | 0.00 | 0.00 | 0.00 | 61 | 1015.4 |
| 20260902085432 | 62 | 249 | 2.0 | 4.0 | 0.00 | 0.00 | 0.00 | 61 | 1015.3 |
| 20260902084927 | 62 | 286 | 1.0 | 2.0 | 0.00 | 0.00 | 0.00 | 60 | 1015.3 |
| 20260902084423 | 62 | 264 | 2.0 | 2.0 | 0.00 | 0.00 | 0.00 | 60 | 1015.4 |
| 20260902083919 | 62 | 213 | 2.0 | 4.0 | 0.00 | 0.00 | 0.00 | 60 | 1015.3 |
| 20260902083419 | 62 | 265 | 2.0 | 5.0 | 0.00 | 0.00 | 0.00 | 60 | 1015.1 |
| 20260902082914 | 62 | 290 | 3.0 | 4.0 | 0.00 | 0.00 | 0.00 | 59 | 1015.3 |
| 20260902082409 | 63 | 244 | 2.0 | 2.0 | 0.00 | 0.00 | 0.00 | 59 | 1015.4 |
| 20260902081906 | 63 | 240 | 2.0 | 2.0 | 0.00 | 0.00 | 0.00 | 58 | 1015.2 |
| 20260902081402 | 63 | 246 | 3.0 | 4.0 | 0.00 | 0.00 | 0.00 | 59 | 1015.5 |
| 20260902080856 | 63 | 227 | 2.0 | 4.0 | 0.00 | 0.00 | 0.00 | 58 | 1015.2 |
| 20260902080353 | 63 | 250 | 6.0 | 8.0 | 0.00 | 0.00 | 0.00 | 58 | 1015.3 |
| 20260902075852 | 63 | 277 | 5.0 | 6.0 | 0.00 | 0.00 | 0.00 | 58 | 1015.2 |
| 20260902075348 | 63 | 251 | 4.0 | 5.0 | 0.00 | 0.00 | 0.00 | 57 | 1015.1 |
| 20260902074843 | 63 | 259 | 3.0 | 4.0 | 0.00 | 0.00 | 0.00 | 58 | 1015.0 |
| 20260902074339 | 63 | 248 | 5.0 | 7.0 | 0.00 | 0.00 | 0.00 | 57 | 1015.1 |
| 20260902073834 | 63 | 259 | 6.0 | 8.0 | 0.00 | 0.00 | 0.00 | 56 | 1015.0 |
| 20260902073330 | 64 | 263 | 6.0 | 7.0 | 0.00 | 0.00 | 0.00 | 57 | 1015.1 |
| 20260902072826 | 64 | 246 | 5.0 | 6.0 | 0.00 | 0.00 | 0.00 | 57 | 1015.1 |
| 20260902072321 | 64 | 242 | 5.0 | 7.0 | 0.00 | 0.00 | 0.00 | 56 | 1015.1 |
| 20260902071818 | 64 | 249 | 4.0 | 5.0 | 0.00 | 0.00 | 0.00 | 57 | 1015.0 |
| 20260902071312 | 64 | 266 | 6.0 | 7.0 | 0.00 | 0.00 | 0.00 | 56 | 1015.1 |
| 20260902070809 | 64 | 248 | 5.0 | 8.0 | 0.00 | 0.00 | 0.00 | 57 | 1015.1 |
| 20260902070308 | 64 | 276 | 5.0 | 7.0 | 0.00 | 0.00 | 0.00 | 56 | 1015.2 |
| 20260902065807 | 64 | 266 | 4.0 | 5.0 | 0.00 | 0.00 | 0.00 | 57 | 1014.9 |
| 20260902065306 | 64 | 254 | 4.0 | 5.0 | 0.00 | 0.00 | 0.00 | 56 | 1014.8 |
| 20260902064758 | 64 | 301 | 6.0 | 7.0 | 0.00 | 0.00 | 0.00 | 55 | 1014.9 |
| 20260902064254 | 65 | 224 | 1.0 | 2.0 | 0.00 | 0.00 | 0.00 | 55 | 1014.9 |
| 20260902063749 | 65 | 238 | 6.0 | 9.0 | 0.00 | 0.00 | 0.00 | 55 | 1014.8 |
| 20260902063243 | 65 | 285 | 3.0 | 4.0 | 0.00 | 0.00 | 0.00 | 55 | 1014.8 |
| 20260902062743 | 65 | 267 | 6.0 | 8.0 | 0.00 | 0.00 | 0.00 | 54 | 1014.7 |
| 20260902062238 | 65 | 162 | 3.0 | 5.0 | 0.00 | 0.00 | 0.00 | 55 | 1014.8 |
| 20260902061737 | 66 | 247 | 4.0 | 6.0 | 0.00 | 0.00 | 0.00 | 55 | 1014.9 |
| 20260902061233 | 66 | 269 | 4.0 | 5.0 | 0.00 | 0.00 | 0.00 | 54 | 1014.7 |
| 20260902060730 | 66 | 267 | 7.0 | 9.0 | 0.00 | 0.00 | 0.00 | 53 | 1014.6 |
| 20260902060225 | 66 | 243 | 3.0 | 5.0 | 0.00 | 0.00 | 0.00 | 55 | 1014.4 |
| 20260902055720 | 66 | 262 | 2.0 | 2.0 | 0.00 | 0.00 | 0.00 | 54 | 1014.7 |
| 20260902055217 | 66 | 248 | 6.0 | 8.0 | 0.00 | 0.00 | 0.00 | 54 | 1014.6 |
| 20260902054712 | 66 | 264 | 5.0 | 6.0 | 0.00 | 0.00 | 0.00 | 54 | 1014.6 |
| 20260902054207 | 66 | 296 | 3.0 | 4.0 | 0.00 | 0.00 | 0.00 | 55 | 1014.7 |
| 20260902053703 | 66 | 264 | 4.0 | 5.0 | 0.00 | 0.00 | 0.00 | 55 | 1014.6 |
| 20260902053202 | 66 | 286 | 5.0 | 6.0 | 0.00 | 0.00 | 0.00 | 55 | 1014.8 |
| 20260902052701 | 66 | 273 | 5.0 | 6.0 | 0.00 | 0.00 | 0.00 | 55 | 1014.8 |
| 20260902052157 | 66 | 280 | 3.0 | 4.0 | 0.00 | 0.00 | 0.00 | 55 | 1014.6 |
| 20260902051656 | 66 | 266 | 6.0 | 7.0 | 0.00 | 0.00 | 0.00 | 53 | 1014.7 |
| 20260902051151 | 67 | 261 | 5.0 | 7.0 | 0.00 | 0.00 | 0.00 | 52 | 1014.6 |
| 20260902050645 | 67 | 259 | 5.0 | 8.0 | 0.00 | 0.00 | 0.00 | 51 | 1014.5 |
| 20260902050141 | 67 | 299 | 6.0 | 8.0 | 0.00 | 0.00 | 0.00 | 51 | 1014.4 |
| 20260902045635 | 67 | 253 | 5.0 | 6.0 | 0.00 | 0.00 | 0.00 | 49 | 1014.4 |
| 20260902045131 | 68 | 241 | 5.0 | 6.0 | 0.00 | 0.00 | 0.00 | 49 | 1014.4 |
| 20260902044626 | 68 | 286 | 5.0 | 7.0 | 0.00 | 0.00 | 0.00 | 47 | 1014.4 |
| 20260902044123 | 68 | 291 | 4.0 | 5.0 | 0.00 | 0.00 | 0.00 | 46 | 1014.3 |
| 20260902043617 | 68 | 258 | 4.0 | 5.0 | 0.00 | 0.00 | 0.00 | 45 | 1014.2 |
| 20260902043112 | 69 | 259 | 3.0 | 5.0 | 0.00 | 0.00 | 0.00 | 46 | 1014.0 |
| 20260902042611 | 69 | 298 | 4.0 | 5.0 | 0.00 | 0.00 | 0.00 | 46 | 1014.1 |
| 20260902042108 | 69 | 257 | 3.0 | 5.0 | 0.00 | 0.00 | 0.00 | 45 | 1013.9 |
| 20260902041607 | 70 | 263 | 5.0 | 7.0 | 0.00 | 0.00 | 0.00 | 45 | 1013.9 |
| 20260902041101 | 70 | 240 | 6.0 | 8.0 | 0.00 | 0.00 | 0.00 | 45 | 1013.7 |
| 20260902040555 | 70 | 283 | 5.0 | 7.0 | 0.00 | 0.00 | 0.00 | 44 | 1013.9 |
| 20260902040050 | 70 | 267 | 3.0 | 5.0 | 0.00 | 0.00 | 0.00 | 44 | 1013.5 |
| 20260902035549 | 70 | 259 | 4.0 | 6.0 | 0.00 | 0.00 | 0.00 | 44 | 1013.5 |
| 20260902035045 | 70 | 274 | 3.0 | 5.0 | 0.00 | 0.00 | 0.00 | 45 | 1013.3 |
| 20260902034544 | 70 | 259 | 3.0 | 4.0 | 0.00 | 0.00 | 0.00 | 46 | 1013.4 |
| 20260902034043 | 70 | 271 | 1.0 | 1.0 | 0.00 | 0.00 | 0.00 | 49 | 1013.0 |
| 20260902033542 | 70 | 264 | 1.0 | 1.0 | 0.00 | 0.00 | 0.00 | 48 | 1013.1 |
| 20260902033037 | 70 | 104 | 0.0 | 0.0 | 0.00 | 0.00 | 0.00 | 48 | 1013.2 |
| 20260902032536 | 70 | 52 | 0.0 | 0.0 | 0.00 | 0.00 | 0.00 | 47 | 1012.9 |
| 20260902032031 | 71 | 54 | 0.0 | 0.0 | 0.00 | 0.00 | 0.00 | 47 | 1013.0 |
| 20260902031526 | 71 | 38 | 1.0 | 1.0 | 0.00 | 0.00 | 0.00 | 47 | 1012.8 |
| 20260902031022 | 71 | 265 | 0.0 | 1.0 | 0.00 | 0.00 | 0.00 | 48 | 1012.8 |
| 20260902030517 | 71 | 271 | 0.0 | 0.0 | 0.00 | 0.00 | 0.00 | 48 | 1012.9 |
| 20260902030016 | 72 | 282 | 1.0 | 1.0 | 0.00 | 0.00 | 0.00 | 47 | 1012.6 |
| 20260902025511 | 72 | 228 | 1.0 | 1.0 | 0.00 | 0.00 | 0.00 | 47 | 1012.6 |
| 20260902025006 | 73 | 31 | 0.0 | 0.0 | 0.00 | 0.00 | 0.00 | 46 | 1012.7 |
| 20260902024502 | 73 | 321 | 1.0 | 1.0 | 0.00 | 0.00 | 0.00 | 44 | 1012.7 |
| 20260902023956 | 73 | 48 | 0.0 | 0.0 | 0.00 | 0.00 | 0.00 | 44 | 1012.5 |
| 20260902023452 | 74 | 287 | 0.0 | 0.0 | 0.00 | 0.00 | 0.00 | 42 | 1012.5 |
| 20260902022951 | 74 | 250 | 1.0 | 1.0 | 0.00 | 0.00 | 0.00 | 41 | 1012.6 |
| 20260902022447 | 75 | 253 | 2.0 | 2.0 | 0.00 | 0.00 | 0.00 | 40 | 1012.5 |
| 20260902021942 | 75 | 267 | 4.0 | 5.0 | 0.00 | 0.00 | 0.00 | 38 | 1012.3 |
| 20260902021437 | 76 | 250 | 3.0 | 4.0 | 0.00 | 0.00 | 0.00 | 38 | 1012.7 |
| 20260902020932 | 76 | 264 | 3.0 | 4.0 | 0.00 | 0.00 | 0.00 | 37 | 1012.4 |
| 20260902020429 | 77 | 245 | 4.0 | 5.0 | 0.00 | 0.00 | 0.00 | 35 | 1012.3 |
| 20260902015924 | 77 | 266 | 4.0 | 5.0 | 0.00 | 0.00 | 0.00 | 34 | 1012.4 |
| 20260902015420 | 77 | 241 | 5.0 | 7.0 | 0.00 | 0.00 | 0.00 | 33 | 1012.3 |
| 20260902014915 | 78 | 280 | 2.0 | 2.0 | 0.00 | 0.00 | 0.00 | 33 | 1012.3 |
| 20260902014412 | 78 | 246 | 3.0 | 4.0 | 0.00 | 0.00 | 0.00 | 32 | 1012.2 |
| 20260902013910 | 78 | 281 | 3.0 | 4.0 | 0.00 | 0.00 | 0.00 | 31 | 1012.1 |
| 20260902013406 | 78 | 280 | 3.0 | 4.0 | 0.00 | 0.00 | 0.00 | 31 | 1012.0 |
| 20260902012901 | 78 | 256 | 3.0 | 5.0 | 0.00 | 0.00 | 0.00 | 30 | 1012.1 |
| 20260902012357 | 80 | 337 | 3.0 | 5.0 | 0.00 | 0.00 | 0.00 | 31 | 1012.0 |
| 20260902011852 | 80 | 266 | 2.0 | 2.0 | 0.00 | 0.00 | 0.00 | 28 | 1012.0 |
| 20260902011346 | 80 | 45 | 1.0 | 1.0 | 0.00 | 0.00 | 0.00 | 28 | 1012.1 |
| 20260902010841 | 80 | 290 | 2.0 | 4.0 | 0.00 | 0.00 | 0.00 | 31 | 1012.1 |
| 20260902010336 | 80 | 253 | 4.0 | 6.0 | 0.00 | 0.00 | 0.00 | 31 | 1012.1 |
| 20260902005835 | 81 | 265 | 3.0 | 5.0 | 0.00 | 0.00 | 0.00 | 30 | 1012.0 |
| 20260902005329 | 82 | 250 | 1.0 | 1.0 | 0.00 | 0.00 | 0.00 | 28 | 1012.0 |
| 20260902004825 | 82 | 271 | 5.0 | 6.0 | 0.00 | 0.00 | 0.00 | 27 | 1012.2 |
| 20260902004319 | 82 | 196 | 1.0 | 1.0 | 0.00 | 0.00 | 0.00 | 27 | 1012.0 |
| 20260902003814 | 82 | 105 | 1.0 | 1.0 | 0.00 | 0.00 | 0.00 | 26 | 1012.1 |
| 20260902003309 | 82 | 277 | 2.0 | 2.0 | 0.00 | 0.00 | 0.00 | 27 | 1012.1 |
| 20260902002805 | 83 | 214 | 1.0 | 2.0 | 0.00 | 0.00 | 0.00 | 26 | 1012.2 |
| 20260902002306 | 83 | 248 | 2.0 | 2.0 | 0.00 | 0.00 | 0.00 | 27 | 1012.2 |
| 20260902001800 | 82 | 344 | 1.0 | 2.0 | 0.00 | 0.00 | 0.00 | 29 | 1012.3 |
| 20260902001255 | 83 | 241 | 2.0 | 2.0 | 0.00 | 0.00 | 0.00 | 30 | 1012.3 |
| 20260902000749 | 81 | 259 | 3.0 | 4.0 | 0.00 | 0.00 | 0.00 | 29 | 1012.3 |
| 20260902000244 | 82 | 233 | 2.0 | 2.0 | 0.00 | 0.00 | 0.00 | 31 | 1012.3 |
| 20260901235739 | 83 | 147 | 1.0 | 1.0 | 0.00 | 0.00 | 0.00 | 29 | 1012.2 |
| 20260901235234 | 82 | 37 | 1.0 | 1.0 | 0.00 | 0.00 | 0.00 | 31 | 1012.4 |
| 20260901234734 | 82 | 22 | 0.0 | 1.0 | 0.00 | 0.00 | 0.00 | 31 | 1012.4 |
| 20260901234233 | 82 | 264 | 2.0 | 2.0 | 0.00 | 0.00 | 0.00 | 29 | 1012.4 |
| 20260901233728 | 81 | 265 | 3.0 | 4.0 | 0.00 | 0.00 | 0.00 | 29 | 1012.4 |
| 20260901233225 | 82 | 279 | 6.0 | 8.0 | 0.00 | 0.00 | 0.00 | 29 | 1012.5 |
| 20260901232725 | 81 | 225 | 3.0 | 4.0 | 0.00 | 0.00 | 0.00 | 30 | 1012.4 |
| 20260901232220 | 81 | 238 | 3.0 | 4.0 | 0.00 | 0.00 | 0.00 | 30 | 1012.4 |
| 20260901231716 | 80 | 209 | 2.0 | 2.0 | 0.00 | 0.00 | 0.00 | 30 | 1012.3 |
| 20260901231212 | 80 | 253 | 4.0 | 5.0 | 0.00 | 0.00 | 0.00 | 30 | 1012.4 |
| 20260901230708 | 81 | 250 | 4.0 | 5.0 | 0.00 | 0.00 | 0.00 | 31 | 1012.4 |
| 20260901230207 | 80 | 266 | 3.0 | 4.0 | 0.00 | 0.00 | 0.00 | 30 | 1012.8 |
| 20260901225703 | 82 | 238 | 5.0 | 5.0 | 0.00 | 0.00 | 0.00 | 31 | 1012.8 |
| 20260901225157 | 81 | 263 | 2.0 | 2.0 | 0.00 | 0.00 | 0.00 | 31 | 1012.9 |
| 20260901224653 | 81 | 251 | 2.0 | 2.0 | 0.00 | 0.00 | 0.00 | 32 | 1012.9 |
| 20260901224149 | 81 | 274 | 3.0 | 4.0 | 0.00 | 0.00 | 0.00 | 31 | 1012.8 |
| 20260901223644 | 81 | 228 | 3.0 | 4.0 | 0.00 | 0.00 | 0.00 | 32 | 1013.0 |
| 20260901223139 | 81 | 315 | 1.0 | 1.0 | 0.00 | 0.00 | 0.00 | 32 | 1012.8 |
| 20260901222636 | 81 | 300 | 3.0 | 5.0 | 0.00 | 0.00 | 0.00 | 34 | 1013.2 |
| 20260901222132 | 80 | 261 | 3.0 | 4.0 | 0.00 | 0.00 | 0.00 | 34 | 1013.3 |
| 20260901221627 | 81 | 287 | 3.0 | 4.0 | 0.00 | 0.00 | 0.00 | 33 | 1013.4 |